User: anonymous   Login
Location: Fremont
(37.5480°N, 121.9880°W)
Time: 13:38:28
(UTC-07:00)
Language:

Cosmos 1766 - Orbit

View from above orbital plane
View from above orbital plane
View from above satellite
View from above satellite

Ground track
Ground track

The orbit data is extracted from the following two-line orbital elements,

1 16881U 86055A   16126.90978854 +.00001464 +00000-0 +89458-4 0  9997
2 16881 082.4968 061.9065 0018315 063.7025 296.6083 15.09395101598821
Epoch (UTC): 05 May 2016 21:50:05
Eccentricity: 0.0018315
inclination: 82.4968°
perigee height: 525 km
apogee height: 551 km
right ascension of ascending node: 61.9065°
argument of perigee: 63.7025°
revolutions per day: 15.09395101
mean anomaly at epoch: 296.6083°
orbit number at epoch: 59882

The dashed part of the orbit path shows where the satellite is in the earth's shadow,  

DLR